Location: Casilda
(33.0440°S, 61.1680°W)
Time: 23:07:07
(UTC-03:00)

ISS - Visible Passes

Search period start: 22 January 2018 00:00
Search period end: 01 February 2018 00:00
Orbit: 402 x 407 km, 51.6° (Epoch: 23 January)

Date Brightness Start Highest point End Pass type
(mag) Time Alt. Az. Time Alt. Az. Time Alt. Az.
27 Jan -1.0 05:28:28 10° NNE 05:29:40 12° NE 05:30:51 10° ENE visible
29 Jan -2.4 05:18:48 14° N 05:21:11 32° NE 05:24:11 10° ESE visible
30 Jan -1.4 04:28:50 15° NE 04:28:59 15° NE 04:30:59 10° E visible
31 Jan -3.9 05:11:27 33° NW 05:12:48 82° SW 05:16:09 10° SE visible
